AQI (35)

Current Conditions for Foresthill, CA. Sunny, Dry   
Visibility: 10 miles
Space WX Alerts: EXTENDED WARNING:  Geomagnetic K-index of 4 expected ( Latest Alert ) - Issue Time: 2019 Nov 22 0515 UTC

  Summary / Temperature 

Current Temperature
46.0°F
7.8°C
(24/hr Ago)
43.8°F
(Apparent temp)
43.9°F
Cool
Wind Chill Graphs
46.0°F 

46.0°F/ 7.8°C
 --- Virtual Temp: 47.8°F ---

 Temp Rate:

 24/hr Difference:

 Avg Running Temp:

 Todays High:

 Todays Low:

 Y-days High:

 Y-days Low:

 Todays WChill:

 Y-days WChill:

 Evapotranspiration:

-0.4°F/hr 

+2.2°F

46.3°F

48.0°F 12:00am

44.9°F 1:52am

56.2°F 1:22pm

40.3°F 6:29am

40.5°F 4:03am

37.2°F 3:02am

0.004 in

115' Above Ground

 Temperature:

 6'AGL VRS 115'AGL:

 Avg Running Temp:

 Humidity:

 Todays High:

 Todays Low:

 Y-days High:

 Y-days Low:

50.0°F 

+4°F

49.0°F

71% 

50.0°F 8:21am

47.0°F 1:59am

55.0°F 11:23am

43.0°F 3:42am

Temp & Humidity Graphs

  Wind 

Wind Speed

 Calm

Gusting to

 6.0 mph

Wind from E

101°  E

Calm

 Avg speed:

 Wind Run:

 Peak Gust:

Calm 

2.0 miles

  11.0 mph 4:04am

  Almanac  

Moon age: 25 days,4 hours,54 minutes,20%

Waning Crescent
20%
Illuminated
25 days in cycle

 Moonrise:

 Moonset:

 Sunrise:

 Sunset:

 Solar Noon:

2:08am

2:45pm

6:53am

4:44pm

11:50am

1min 44s less daylight tomorrow 

  Solar Radiation 

(Current Solar)
  216 W/m2 (116%)
(Todays High)
 213 W/m2@8:27am
Feels like: 50.2°F in the sun

Rain

 Rain Today:

 Rain Rate (/hr):

 Rain last hour:

 Rain Yesterday:

 This Month:

 Season Total:

35 Days Since Last Rain Day

0.00 in

0.000 in

0.00 in

0.00 in

0.00 in

2.30 in

Updated Time

Updated: 11/22/19  8:29am

(Updated  sec ago)

Humidity & Barometer

 Humidity:

 Wetbulb:

 Dew Point:

 Barometer:

81% 

43.4°F 

40.5°F 

30.212 inHg 

 Baro Trend:  Rising Slowly 
Northern Calif
Preparedness
Fire 
Level 

    UV Index  

(Current UV)
0.5  Low
(Todays High) @ 8:28am
0.5   Low

National Weather Service Forecast

Today

Today: Sunny
Sunny
Tonight

Tonight: Clear
Clear
Saturday

Saturday: Sunny
Sunny
Saturday
Night
Saturday Night: Mostly Clear
Mostly Clear
Sunday

Sunday: Sunny
Sunny
Sunday
Night
Sunday Night: Mostly Clear
Mostly Clear
Hi 57 °F ↓ Lo 43 °F Hi 60 °F ↓ Lo 44 °F Hi 62 °F Lo 43 °F

Foresthill Probe 2 Stats  
Foresthill Probe 2: is located on Thomas Street
at 3000 feet. The main Foresthill Weather site
is located on Melody ln at the 2860 foot elevation

Calm
44.7°F
7.1°C
Temp Rate:
-0.3°F
Calm
Gusting to
None
(Humidity)
84%
Calm
325°  
Updated: 22/11/19 - 08:31:12
 Todays High: 46.8°F 00:00
 Todays Low: 44.0°F 02:12
 Rain Today: 0.00 in
 Season Total: 2.29 in

Foresthill Wx: Monthly,Yearly, Highs and Lows 

Foresthill  
This Weather Data is coming from the main Foresthill
Weather site located on Melody ln at the 2860 foot
elevation
Not Foresthill Probe 2
Weather Data
Month
  High
Month
  Low
Year
High
Year
Low
Temp 78.4°F
11/8/19
40.3°F
11/21/19
92.2°F
8/16/19
24.5°F
2/18/19
Humidity 91%
11/15/19
14%
11/8/19
100%
1/9/19
10%
10/24/19
Heat Index 76.7°F
11/8/19
45.6°F
11/21/19
90.8°F
7/27/19
30.1°F
2/22/19
Wind Chill 78.4°F
11/8/19
37.2°F
11/21/19
92.2°F
8/16/19
11.5°F
2/11/19
Wind Gust 31 mph
11/20/19
0 mph
11/1/19
51 mph
10/27/19
0 mph
1/1/19
Barometer 30.24 in
11/8/19
29.51 in
11/20/19
30.54 in
1/23/19
29.37 in
2/14/19
ET 0.11 in
11/8/19
0.00 in
11/1/19
0.27 in
6/9/19
0.00 in
1/1/19
Dew Point 48.6°F
11/19/19
20.6°F
11/1/19
66.8°F
6/17/19
5.2°F
10/30/19
Visible Satellite Pacific Satellite US Radar Satellite Imagery Sacramento,CA.  (click to enlarge)
NWS Weather Forecast - Summary
Updated: Friday, November 22, 2019 - 4:45am PST
Current Interstate Highway Conditions for I-80 & US-50

[I 80: IN THE SAN FRANCISCO BAY AREA - SOLANO CO]
  A high wind advisory is in effect at the san francisco-oakland bay bridge /in san francisco/ (san francisco,alameda co) - travel is not recommended for campers, trailers or permit loads

[I 80: IN THE NORTHERN CALIFORNIA AREA & SIERRA NEVADA]
  A high wind advisory is in effect over the yolo causeway & over the bryte bend bridge /west of sacramento/ (yolo co)

[US 50: IN THE SACRAMENTO VALLEY & THE LAKE TAHOE BASIN]
a high wind advisory is in effect from the yolo/sacramento co line to the sacramento/EL DORADO CO line - travel is not recommended for campers, trailers or permit loads
NWS Weather Forecast: Today and Tonight (Updated: Thu, 21-Nov-2019 8:03pm PST)
Today

Today: Sunny
Sunny

Hi 57 °F ↓
NWS forecast: Sunny. High near 57, with temperatures falling to around 51 in the afternoon. South wind 1 to 5 mph.
Tonight

Tonight: Clear
Clear

Lo 43 °F
NWS forecast: Clear, with a low around 43. South southeast wind 1 to 5 mph.
YR.NO 10 Day Weather forecast
Last update: 11/22/2019 @ 05:18
Next update: 11/22/2019 @ 11:19
Provided by: 22
      Temperature Precipitation Pressure Wind  
Today
11/22/2019
07:00 12:00 39°F   30.15 inHg Light breeze from east-northeast 5 mph
  12:00 18:00 57°F   30.13 inHg Light breeze from west-southwest 5 mph
  18:00 00:00 46°F   30.17 inHg Calm from east-northeast 0 mph
    (Click to enlarge)
meteogram

    Forecast for next 9 days

      Temperature Precip Pressure Wind  
Saturday
11/23/2019
00:00 06:00 37°F   30.18 inHg Light breeze from east-northeast 7 mph
  06:00 12:00 37°F   30.19 inHg Light breeze from east-northeast 7 mph
  12:00 18:00 61°F   30.17 inHg Light breeze from west-southwest 4 mph
  18:00 00:00 48°F   30.16 inHg Light air from northeast 2 mph
      Temperature Precip Pressure Wind  
Sunday
11/24/2019
00:00 06:00 39°F   30.18 inHg Light breeze from east 6 mph
  06:00 12:00 34°F   30.16 inHg Light breeze from east-northeast 6 mph
  12:00 18:00 63°F   30.12 inHg Light air from west-southwest 3 mph
  16:00 22:00 55°F   30.08 inHg Light air from west-southwest 2 mph
  22:00 04:00 37°F   30.09 inHg Light air from east 2 mph
      Temperature Precip Pressure Wind  
Monday
11/25/2019
04:00 10:00 34°F   30.03 inHg Light air from east 3 mph
  10:00 16:00 54°F   30.01 inHg Light breeze from west-southwest 4 mph
  16:00 22:00 48°F   29.97 inHg Light breeze from west-northwest 7 mph
  22:00 04:00 30°F   29.98 inHg Light breeze from east-northeast 6 mph
      Temperature Precip Pressure Wind  
Tuesday
11/26/2019
04:00 10:00 28°F   29.90 inHg Light breeze from east 5 mph
  10:00 16:00 45°F 0.15 in 29.81 inHg Light breeze from south-southwest 6 mph
  16:00 22:00 32°F 0.39 in 29.63 inHg Light breeze from southeast 7 mph
  22:00 04:00 34°F 0.29 in 29.47 inHg Moderate breeze from south 14 mph
      Temperature Precip Pressure Wind  
Wednesday
11/27/2019
04:00 10:00 32°F 0.35 in 29.47 inHg Gentle breeze from south 11 mph
  10:00 16:00 34°F 0.12 in 29.56 inHg Light breeze from south 6 mph
  16:00 22:00 32°F 0.08 in 29.54 inHg Light breeze from south-southeast 6 mph
  22:00 04:00 30°F 0.13 in 29.63 inHg Light breeze from east-southeast 4 mph
      Temperature Precip Pressure Wind  
Thursday
11/28/2019
04:00 10:00 28°F 0.15 in 29.68 inHg Light breeze from east-northeast 4 mph
  10:00 16:00 34°F 0.11 in 29.74 inHg Light air from east 1 mph
  16:00 22:00 34°F 0.02 in 29.75 inHg Light air from east-northeast 2 mph
  22:00 04:00 28°F 0.06 in 29.81 inHg Light air from east 2 mph
      Temperature Precip Pressure Wind  
Friday
11/29/2019
04:00 10:00 30°F < 0.01 in 29.79 inHg Light breeze from east-northeast 5 mph
  10:00 16:00 39°F   29.81 inHg Calm from southeast 0 mph
  16:00 22:00 34°F 0.03 in 29.70 inHg Light breeze from north-northwest 4 mph
  22:00 04:00 34°F 0.02 in 29.64 inHg Light air from north-northeast 2 mph
      Temperature Precip Pressure Wind  
Saturday
11/30/2019
04:00 10:00 34°F   29.68 inHg Light breeze from east 4 mph
  10:00 16:00 37°F   29.91 inHg Light air from south-southeast 3 mph
  16:00 22:00 39°F   29.95 inHg Light air from southeast 2 mph
  22:00 04:00 32°F   30.03 inHg Light air from east-northeast 2 mph
      Temperature Precip Pressure Wind  
Sunday
12/01/2019
04:00 10:00 32°F   30.05 inHg Light air from east 2 mph
How Close Are We To this Month's Temperature Record ?
Updated Friday, Nov 22, 2019- 8:30:00 AM

Current Temperature: 46.0°F

November's High: Temperature Record 78.4°F - Set on Fri, Nov 8, 2019 - 12:04:54 PM
We are currently 32.4°F Less than this Month's record High

November's Low: Temperature Record 28.9°F - Set on Thu, Nov 26, 2015 - 6:22:00 AM
We are currently 17.1°F More than this Month's record Low

Weather History For Friday, November 22, 2019


On this Day - In Weather History ...
Data courtesy of weatherforyou.com
powered by Cumulus v1.9.3 (1059)
Ambient Weather VWS v14.00
Top Website Map Copyright © 2007 - 2019 Foresthillweather.com Never base important decisions on this or any weather information obtained from the Internet